CW3077 Weather Reports


Display with metric or nautical units.
time (UTC)temp
F
wind
direction
speed
MPH
gust
MPH
rain 1hr
in
rain 24hr
in
rain mn
in
humidity
%
barometer
mb
20260508203016 78 90 6.0 12.0 0.00 0.00 0.00 70 1011.5
20260508202516 79 90 4.0 9.0 0.00 0.00 0.00 71 1011.7
20260508202016 78 90 5.0 11.0 0.00 0.00 0.00 73 1011.6
20260508201516 78 90 5.0 13.0 0.00 0.00 0.00 72 1011.7
20260508201016 78 135 4.0 8.0 0.00 0.00 0.00 72 1011.7
20260508200536 77 90 4.0 9.0 0.00 0.00 0.00 73 1011.9
20260508200015 77 68 5.0 8.0 0.00 0.00 0.00 72 1012.2
20260508195516 77 90 5.0 11.0 0.00 0.00 0.00 72 1012.2
20260508195036 77 68 5.0 9.0 0.00 0.00 0.00 72 1012.2
20260508194556 77 45 3.0 8.0 0.00 0.00 0.00 71 1012.2
20260508194016 77 68 3.0 8.0 0.00 0.00 0.00 72 1012.3
20260508193556 77 68 4.0 7.0 0.00 0.00 0.00 72 1012.3
20260508193015 78 90 3.0 9.0 0.00 0.00 0.00 70 1012.3
20260508192516 79 90 3.0 8.0 0.00 0.00 0.00 67 1012.3
20260508192016 80 90 6.0 11.0 0.00 0.00 0.00 65 1012.4
20260508191516 80 90 4.0 11.0 0.00 0.00 0.00 68 1012.4
20260508191016 78 90 4.0 8.0 0.00 0.00 0.00 69 1012.5
20260508190516 79 90 5.0 13.0 0.00 0.00 0.00 68 1012.6
20260508190056 79 68 4.0 11.0 0.00 0.00 0.00 69 1012.5
20260508185536 79 45 4.0 8.0 0.00 0.00 0.00 67 1012.6
20260508185016 78 90 5.0 10.0 0.00 0.00 0.00 69 1012.6
20260508184515 77 45 3.0 10.0 0.00 0.00 0.00 71 1012.7
20260508184016 78 68 4.0 8.0 0.00 0.00 0.00 69 1012.8
20260508183515 78 113 1.0 5.0 0.00 0.00 0.00 67 1012.9
20260508183015 79 113 3.0 6.0 0.00 0.00 0.00 67 1013.1
20260508182515 77 68 3.0 8.0 0.00 0.00 0.00 72 1013.0
20260508182015 76 113 2.0 4.0 0.00 0.00 0.00 70 1013.1
20260508181515 77 68 3.0 8.0 0.00 0.00 0.00 72 1013.1
20260508181016 76 113 2.0 8.0 0.00 0.00 0.00 72 1013.3
20260508180515 76 68 2.0 5.0 0.00 0.00 0.00 71 1013.4
20260508180056 75 90 3.0 6.0 0.00 0.00 0.00 73 1013.5
20260508175515 75 90 2.0 6.0 0.00 0.00 0.00 71 1013.5
20260508175036 75 90 2.0 3.0 0.00 0.00 0.00 73 1013.6
20260508174536 74 90 1.0 4.0 0.00 0.00 0.00 74 1013.6
20260508174016 74 45 3.0 6.0 0.00 0.00 0.00 73 1013.6
20260508173515 73 23 3.0 7.0 0.00 0.00 0.00 73 1013.7
20260508173016 73 68 4.0 6.0 0.00 0.00 0.00 74 1013.6
20260508172515 72 45 4.0 9.0 0.00 0.00 0.00 76 1013.6
20260508172015 71 45 3.0 8.0 0.00 0.00 0.00 76 1013.6
20260508171515 71 68 3.0 6.0 0.00 0.00 0.00 76 1013.7
20260508171015 70 23 3.0 6.0 0.00 0.00 0.00 77 1013.6
20260508170516 70 45 3.0 5.0 0.00 0.00 0.00 78 1013.7
20260508170056 69 338 2.0 4.0 0.00 0.00 0.00 78 1013.9
20260508165515 69 338 2.0 4.0 0.00 0.00 0.00 77 1014.1
20260508165015 69 338 2.0 6.0 0.00 0.00 0.00 77 1014.2
20260508164535 69 203 1.0 4.0 0.00 0.00 0.00 77 1014.1
20260508164016 69 203 1.0 2.0 0.00 0.00 0.00 77 1014.2
20260508163515 69 203 1.0 3.0 0.00 0.00 0.00 78 1014.3
20260508163015 69 0.0 3.0 0.00 0.00 0.00 78 1014.3
20260508162515 69 203 1.0 4.0 0.00 0.00 0.00 78 1014.2
20260508162015 69 225 1.0 4.0 0.00 0.00 0.00 78 1014.3
20260508161515 68 0.0 2.0 0.00 0.00 0.00 80 1014.4
20260508161035 68 0.0 2.0 0.00 0.00 0.00 80 1014.6
20260508160515 68 225 2.0 4.0 0.00 0.00 0.00 79 1014.4
20260508160036 67 0.0 3.0 0.00 0.00 0.00 82 1014.5
20260508155515 66 225 1.0 3.0 0.00 0.00 0.00 81 1014.6
20260508155015 66 0.0 2.0 0.00 0.00 0.00 81 1014.7
20260508154515 66 0.0 1.0 0.00 0.00 0.00 82 1014.8
20260508154015 66 0.0 2.0 0.00 0.00 0.00 82 1014.8
20260508153515 66 0.0 1.0 0.00 0.00 0.00 81 1014.7
20260508153015 66 90 1.0 2.0 0.00 0.00 0.00 81 1014.7
20260508152516 66 90 2.0 5.0 0.00 0.00 0.00 81 1014.5
20260508152015 66 113 2.0 4.0 0.00 0.00 0.00 81 1014.8
20260508151515 66 113 1.0 4.0 0.00 0.00 0.00 81 1014.8
20260508151035 66 90 1.0 3.0 0.00 0.00 0.00 80 1014.8
20260508150515 66 90 1.0 2.0 0.00 0.00 0.00 81 1014.6
20260508150015 65 90 2.0 4.0 0.00 0.00 0.00 81 1014.5
20260508145515 65 90 1.0 2.0 0.00 0.00 0.00 80 1014.6
20260508145015 66 90 3.0 6.0 0.00 0.00 0.00 79 1014.6
20260508144516 66 90 3.0 6.0 0.00 0.00 0.00 78 1014.6
20260508144015 66 90 2.0 5.0 0.00 0.00 0.00 79 1014.8
20260508143515 66 90 5.0 9.0 0.00 0.00 0.00 78 1014.7
20260508143016 66 90 2.0 8.0 0.00 0.00 0.00 79 1014.6
20260508142515 66 90 3.0 5.0 0.00 0.00 0.00 79 1014.6
20260508142015 65 90 3.0 8.0 0.00 0.00 0.00 80 1014.6
20260508141515 65 90 3.0 6.0 0.00 0.00 0.00 79 1014.6
20260508141035 65 90 4.0 6.0 0.00 0.00 0.00 79 1014.8
20260508140515 65 90 2.0 5.0 0.00 0.00 0.00 79 1014.7
20260508140015 65 90 3.0 7.0 0.00 0.00 0.00 78 1014.7
20260508135535 65 90 2.0 5.0 0.00 0.00 0.00 79 1014.7
20260508135015 65 68 1.0 4.0 0.00 0.00 0.00 80 1014.8
20260508134515 64 68 2.0 5.0 0.00 0.00 0.00 80 1014.7
20260508134015 64 68 3.0 6.0 0.00 0.00 0.00 81 1014.4
20260508133515 63 68 2.0 4.0 0.00 0.00 0.00 82 1014.8
20260508133015 63 0.0 1.0 0.00 0.00 0.00 83 1015.0
20260508132515 62 0.0 0.0 0.00 0.00 0.00 83 1015.2
20260508132037 62 0.0 0.0 0.00 0.00 0.00 82 1015.2
20260508131517 62 0.0 0.0 0.00 0.00 0.00 83 1015.2
20260508131017 62 0.0 2.0 0.00 0.00 0.00 83 1015.1
20260508130517 62 0.0 0.0 0.00 0.00 0.00 83 1015.1
20260508130037 62 0.0 3.0 0.00 0.00 0.00 83 1015.0
20260508125517 62 45 2.0 4.0 0.00 0.00 0.00 82 1015.0
20260508125017 62 45 1.0 3.0 0.00 0.00 0.00 83 1015.0
20260508124517 62 0.0 3.0 0.00 0.00 0.00 83 1015.0
20260508124018 62 0.0 3.0 0.00 0.00 0.00 83 1015.1
20260508123517 61 45 1.0 3.0 0.00 0.00 0.00 83 1015.2
20260508123017 61 45 1.0 3.0 0.00 0.00 0.00 83 1015.3
20260508122517 61 0.0 3.0 0.00 0.00 0.00 83 1015.3
20260508122017 61 45 1.0 3.0 0.00 0.00 0.00 83 1015.1
20260508121517 61 45 2.0 5.0 0.00 0.00 0.00 83 1015.3
20260508121057 61 45 2.0 4.0 0.00 0.00 0.00 83 1015.5
20260508120517 61 45 2.0 4.0 0.00 0.00 0.00 84 1015.6
20260508120017 61 0.0 4.0 0.00 0.00 0.00 84 1015.7
20260508115517 61 45 2.0 3.0 0.00 0.00 0.00 84 1015.5
20260508115016 61 45 2.0 3.0 0.00 0.00 0.00 84 1015.5
20260508114517 61 0.0 2.0 0.00 0.00 0.00 84 1015.7
20260508114017 61 45 1.0 2.0 0.00 0.00 0.00 84 1015.8
20260508113517 61 45 1.0 3.0 0.00 0.00 0.00 83 1016.0
20260508113017 61 45 2.0 4.0 0.00 0.00 0.00 84 1016.1
20260508112516 61 45 3.0 4.0 0.00 0.00 0.00 83 1016.0
20260508112037 61 45 3.0 5.0 0.00 0.00 0.00 83 1015.9
20260508111517 61 45 3.0 6.0 0.00 0.00 0.00 83 1015.7
20260508111017 61 45 3.0 8.0 0.00 0.00 0.00 83 1015.6
20260508110517 61 45 4.0 8.0 0.00 0.00 0.00 83 1015.4
20260508110017 61 23 3.0 5.0 0.00 0.00 0.00 83 1015.4
20260508105517 61 23 5.0 9.0 0.00 0.00 0.00 83 1015.5
20260508105037 61 45 4.0 9.0 0.00 0.00 0.00 83 1015.5
20260508104516 61 23 5.0 10.0 0.00 0.00 0.00 84 1015.4
20260508104017 61 23 4.0 9.0 0.00 0.00 0.00 84 1015.3
20260508103516 61 23 3.0 7.0 0.00 0.00 0.00 84 1015.3
20260508103017 61 23 3.0 5.0 0.00 0.00 0.00 83 1015.5
20260508102516 61 23 3.0 6.0 0.00 0.00 0.00 83 1015.6
20260508102017 61 23 2.0 6.0 0.00 0.00 0.00 83 1015.8
20260508101517 61 0 2.0 4.0 0.00 0.00 0.00 83 1015.9
20260508101016 61 0 2.0 5.0 0.00 0.00 0.00 83 1015.9
20260508100537 61 0 2.0 5.0 0.00 0.00 0.00 83 1016.0
20260508100017 61 23 1.0 4.0 0.00 0.00 0.00 83 1015.9
20260508095516 61 23 2.0 4.0 0.00 0.00 0.00 83 1015.9
20260508095017 61 23 2.0 5.0 0.00 0.00 0.00 83 1015.9
20260508094537 61 23 2.0 4.0 0.00 0.00 0.00 83 1015.9
20260508094016 61 23 1.0 4.0 0.00 0.00 0.00 83 1015.9
20260508093516 61 23 1.0 4.0 0.00 0.00 0.00 83 1016.0
20260508093016 61 45 1.0 3.0 0.00 0.00 0.00 83 1015.8
20260508092536 61 45 2.0 4.0 0.00 0.00 0.00 83 1015.7
20260508092017 61 45 1.0 3.0 0.00 0.00 0.00 83 1015.6
20260508091516 61 45 1.0 4.0 0.00 0.00 0.00 82 1015.5
20260508091016 61 45 1.0 4.0 0.00 0.00 0.00 82 1015.5
20260508090516 61 45 1.0 4.0 0.00 0.00 0.00 82 1015.5
20260508090037 61 45 1.0 4.0 0.00 0.00 0.00 82 1015.4
20260508085516 61 45 1.0 4.0 0.00 0.00 0.00 82 1015.5
20260508085016 61 45 1.0 2.0 0.00 0.00 0.00 82 1015.5
20260508084517 61 45 1.0 3.0 0.00 0.00 0.00 82 1015.6
20260508084016 61 45 2.0 3.0 0.00 0.00 0.00 82 1015.4
20260508083517 61 45 1.0 2.0 0.00 0.00 0.00 82 1015.6
20260508083017 61 0.0 2.0 0.00 0.00 0.00 82 1015.8
20260508082516 61 45 1.0 4.0 0.00 0.00 0.00 82 1015.6
20260508082016 61 0.0 1.0 0.00 0.00 0.00 82 1015.7
20260508081517 61 0.0 3.0 0.00 0.00 0.00 82 1015.6
20260508081016 61 0.0 1.0 0.00 0.00 0.00 83 1015.3
20260508080537 61 45 1.0 3.0 0.00 0.00 0.00 83 1015.3
20260508080036 60 45 2.0 4.0 0.00 0.00 0.00 83 1015.3
20260508075516 60 45 1.0 4.0 0.00 0.00 0.00 83 1015.2
20260508075016 60 45 3.0 5.0 0.00 0.00 0.00 84 1015.0
20260508074516 60 68 3.0 6.0 0.00 0.00 0.00 84 1015.1
20260508074036 60 45 2.0 4.0 0.00 0.00 0.00 85 1015.1
20260508073516 60 45 2.0 4.0 0.00 0.00 0.00 85 1015.4
20260508073016 60 23 2.0 5.0 0.00 0.00 0.00 86 1015.4
20260508072516 60 23 2.0 5.0 0.00 0.00 0.00 86 1015.4
20260508072037 59 23 2.0 5.0 0.00 0.00 0.00 88 1015.5
20260508071536 59 23 1.0 4.0 0.00 0.00 0.00 88 1015.6
20260508071036 59 0.0 1.0 0.00 0.00 0.00 88 1015.6
20260508070516 59 0.0 1.0 0.00 0.00 0.00 88 1015.8
20260508070016 59 0.0 2.0 0.00 0.00 0.00 88 1015.8
20260508065516 59 0.0 2.0 0.00 0.00 0.00 88 1015.7
20260508065017 59 0.0 1.0 0.00 0.00 0.00 88 1015.8
20260508064516 59 0.0 0.0 0.00 0.00 0.00 88 1016.0
20260508064016 59 0.0 0.0 0.00 0.00 0.00 88 1016.0
20260508063516 59 0.0 1.0 0.00 0.00 0.00 88 1016.1
20260508063016 58 0.0 0.0 0.00 0.00 0.00 88 1016.4
20260508062516 59 0.0 0.0 0.00 0.00 0.00 88 1016.5
20260508062016 58 0.0 0.0 0.00 0.00 0.00 88 1016.5
20260508061516 58 0.0 1.0 0.00 0.00 0.00 88 1016.5
20260508061016 59 23 1.0 2.0 0.00 0.00 0.00 88 1016.5
20260508060536 59 0.0 2.0 0.00 0.00 0.00 88 1016.3
20260508060016 59 0.0 2.0 0.00 0.00 0.00 88 1016.0
20260508055516 59 0.0 3.0 0.00 0.00 0.00 86 1016.2
20260508055016 59 0.0 2.0 0.00 0.00 0.00 86 1016.2
20260508054516 59 0.0 1.0 0.00 0.00 0.00 86 1016.2
20260508054036 59 0.0 1.0 0.00 0.00 0.00 86 1016.4
20260508053516 59 0.0 2.0 0.00 0.00 0.00 86 1016.4
20260508053016 60 0.0 3.0 0.00 0.00 0.00 86 1016.1
20260508052516 60 23 1.0 4.0 0.00 0.00 0.00 86 1016.1
20260508052016 60 23 2.0 4.0 0.00 0.00 0.00 86 1016.2
20260508051516 60 23 1.0 3.0 0.00 0.00 0.00 86 1016.0
20260508051016 59 23 1.0 3.0 0.00 0.00 0.00 86 1016.2
20260508050516 59 0.0 2.0 0.00 0.00 0.00 86 1016.2
20260508050016 59 23 1.0 3.0 0.00 0.00 0.00 86 1015.9
20260508045515 59 0.0 1.0 0.00 0.00 0.00 86 1016.4
20260508045017 60 0.0 1.0 0.00 0.00 0.00 86 1016.8
20260508044517 60 0.0 1.0 0.00 0.00 0.00 86 1016.8
20260508044017 59 0.0 1.0 0.00 0.00 0.00 86 1016.3
20260508043517 59 45 1.0 3.0 0.00 0.00 0.00 86 1016.4
20260508043016 59 45 1.0 2.0 0.00 0.00 0.00 86 1016.2
20260508042516 59 0.0 1.0 0.00 0.00 0.00 86 1015.9
20260508042017 59 0.0 2.0 0.00 0.00 0.00 85 1015.9
20260508041517 59 0.0 0.0 0.00 0.00 0.00 86 1016.5
20260508041017 59 0.0 3.0 0.00 0.00 0.00 86 1017.0
20260508040517 59 0.0 0.0 0.00 0.00 0.00 85 1016.7
20260508040017 59 0.0 0.0 0.00 0.00 0.00 85 1016.5
20260508035516 59 0.0 1.0 0.00 0.00 0.00 85 1016.6
20260508035016 60 0.0 2.0 0.00 0.00 0.00 84 1016.9
20260508034516 60 0.0 0.0 0.00 0.00 0.00 84 1017.0
20260508034017 60 0.0 0.0 0.00 0.00 0.00 83 1016.9
20260508033517 60 0.0 2.0 0.00 0.00 0.00 83 1016.8
20260508033037 60 0.0 2.0 0.00 0.00 0.00 82 1016.9
20260508032516 60 0.0 0.0 0.00 0.00 0.00 82 1017.1
20260508032016 61 0.0 2.0 0.00 0.00 0.00 82 1017.4
20260508031516 61 0.0 1.0 0.00 0.00 0.00 82 1017.3
20260508031016 61 0.0 0.0 0.00 0.00 0.00 81 1016.9
20260508030536 61 45 1.0 4.0 0.00 0.00 0.00 81 1016.4
20260508030017 61 45 2.0 4.0 0.00 0.00 0.00 80 1016.1
20260508025517 61 45 2.0 3.0 0.00 0.00 0.00 80 1016.0
20260508025016 61 45 2.0 4.0 0.00 0.00 0.00 80 1016.0
20260508024516 61 45 2.0 4.0 0.00 0.00 0.00 79 1015.9
20260508024017 61 45 3.0 4.0 0.00 0.00 0.00 79 1015.6
20260508023516 61 45 3.0 5.0 0.00 0.00 0.00 79 1015.7
20260508023017 62 45 2.0 6.0 0.00 0.00 0.00 78 1015.4
20260508022517 62 45 4.0 9.0 0.00 0.00 0.00 78 1015.1
20260508022017 62 45 4.0 8.0 0.00 0.00 0.00 78 1015.0
20260508021517 62 90 4.0 8.0 0.00 0.00 0.00 77 1015.0
20260508021016 62 90 4.0 7.0 0.00 0.00 0.00 77 1015.0
20260508020516 62 90 4.0 10.0 0.00 0.00 0.00 77 1015.1
20260508020017 62 90 5.0 9.0 0.00 0.00 0.00 77 1015.1
20260508015516 62 90 3.0 7.0 0.00 0.00 0.00 77 1015.0
20260508015016 62 90 4.0 7.0 0.00 0.00 0.00 77 1015.3
20260508014516 62 68 3.0 8.0 0.00 0.00 0.00 77 1015.3
20260508014016 62 68 2.0 5.0 0.00 0.00 0.00 76 1015.6
20260508013516 62 68 2.0 4.0 0.00 0.00 0.00 76 1015.3
20260508013016 63 90 3.0 6.0 0.00 0.00 0.00 75 1015.1
20260508012516 63 68 3.0 7.0 0.00 0.00 0.00 75 1015.1
20260508012016 63 90 5.0 9.0 0.00 0.00 0.00 75 1015.0
20260508011516 63 68 5.0 10.0 0.00 0.00 0.00 74 1014.9
20260508011016 63 68 4.0 9.0 0.00 0.00 0.00 74 1015.1
20260508010516 63 90 3.0 7.0 0.00 0.00 0.00 74 1015.3
20260508010056 63 68 5.0 10.0 0.00 0.00 0.00 73 1015.4
20260508005516 63 45 3.0 5.0 0.00 0.00 0.00 73 1015.9
20260508005016 63 45 3.0 8.0 0.00 0.00 0.00 73 1016.2
20260508004516 64 45 4.0 8.0 0.00 0.00 0.00 72 1015.8
20260508004016 64 90 4.0 8.0 0.00 0.00 0.00 71 1015.7
20260508003516 64 68 4.0 8.0 0.00 0.00 0.00 71 1015.5
20260508003036 64 68 3.0 8.0 0.00 0.00 0.00 71 1015.7
20260508002516 64 90 4.0 8.0 0.00 0.00 0.00 70 1015.6
20260508002016 64 90 4.0 9.0 0.00 0.00 0.00 70 1016.0
20260508001556 64 68 3.0 5.0 0.00 0.00 0.00 70 1016.1
20260508001016 64 68 2.0 5.0 0.00 0.00 0.00 71 1016.7
20260508000516 65 45 3.0 6.0 0.00 0.00 0.00 68 1016.4
20260508000016 65 45 3.0 8.0 0.00 0.00 0.00 68 1016.5
20260507235516 65 45 4.0 9.0 0.00 0.00 0.00 69 1016.9
20260507235016 65 68 3.0 6.0 0.00 0.00 0.00 69 1017.0
20260507234536 65 68 3.0 5.0 0.00 0.00 0.00 68 1016.7
20260507234036 65 68 2.0 4.0 0.00 0.00 0.00 69 1016.6
20260507233516 65 68 2.0 4.0 0.00 0.00 0.00 68 1016.6
20260507233016 65 68 1.0 4.0 0.00 0.00 0.00 68 1016.7
20260507232516 65 68 1.0 4.0 0.00 0.00 0.00 67 1016.7
20260507232016 65 45 5.0 10.0 0.00 0.00 0.00 65 1016.3
20260507231516 65 45 5.0 9.0 0.00 0.00 0.00 66 1016.1
20260507231016 66 68 4.0 10.0 0.00 0.00 0.00 66 1016.5
20260507230516 65 23 5.0 9.0 0.00 0.00 0.00 66 1016.6
20260507230016 65 45 5.0 11.0 0.00 0.00 0.00 66 1016.5
20260507225536 65 23 5.0 10.0 0.00 0.00 0.00 66 1016.6
20260507225016 66 23 5.0 10.0 0.00 0.00 0.00 67 1016.5
20260507224516 66 45 3.0 8.0 0.00 0.00 0.00 67 1016.5
20260507224036 66 45 4.0 8.0 0.00 0.00 0.00 68 1016.8
20260507223516 65 23 4.0 8.0 0.00 0.00 0.00 67 1016.8
20260507223016 65 45 2.0 6.0 0.00 0.00 0.00 69 1016.8
20260507222516 65 23 4.0 8.0 0.00 0.00 0.00 68 1016.8
20260507222016 65 0 3.0 6.0 0.00 0.00 0.00 69 1016.6
20260507221516 65 0 5.0 10.0 0.00 0.00 0.00 68 1017.0
20260507221016 65 0 5.0 10.0 0.00 0.00 0.00 69 1017.1
20260507220536 65 0 6.0 13.0 0.00 0.00 0.00 68 1017.4
20260507220016 65 23 5.0 9.0 0.00 0.00 0.00 68 1017.3
20260507215516 65 23 4.0 12.0 0.00 0.00 0.00 68 1017.3
20260507215016 66 23 4.0 9.0 0.00 0.00 0.00 68 1017.6
20260507214516 66 45 3.0 6.0 0.00 0.00 0.00 67 1017.9
20260507214016 66 23 4.0 9.0 0.00 0.00 0.00 65 1017.7
20260507213516 67 68 4.0 11.0 0.00 0.00 0.00 66 1017.8
20260507213016 66 23 5.0 10.0 0.00 0.00 0.00 66 1017.6
20260507212516 66 23 4.0 9.0 0.00 0.00 0.00 69 1017.6
20260507212016 65 0 6.0 11.0 0.00 0.00 0.00 69 1017.2
20260507211536 65 45 5.0 9.0 0.00 0.00 0.00 69 1017.1
20260507211016 66 68 5.0 9.0 0.00 0.00 0.00 68 1016.8
20260507210516 65 45 3.0 8.0 0.00 0.00 0.00 69 1017.4
20260507210015 65 23 6.0 11.0 0.00 0.00 0.00 70 1017.4
20260507205516 65 23 5.0 9.0 0.00 0.00 0.00 70 1017.4
20260507205036 65 45 6.0 11.0 0.00 0.00 0.00 69 1017.7
20260507204516 65 23 4.0 9.0 0.00 0.00 0.00 69 1018.0
20260507204036 65 23 4.0 9.0 0.00 0.00 0.00 70 1018.1
20260507203516 65 45 3.0 8.0 0.00 0.00 0.00 69 1017.9